[[{"header":{"parameterUnit":"m.s-1","parameterCategory":1,"la1":30.2991,"la2":30.254,"lo1":-89.0895,"lo2":-89.0444,"dy":0.0017,"dx":0.0017,"nx":28,"ny":28,"refTime":"2024-02-23T09:00:00:Z","depth":0,"parameterNumber":2,"parameterNumberName":"U-component_of_WINDS"},"data":[0,0,0,0,0,0,0,0,0,0,0,0,0,0,0,0,0,0,0,0,0,0,0,0,0,0,0,0,0,0,0,0,0,0,0,0,0,0,0,0,0,0,0,0,0,0,0,0,0,0,0,0,0,0,0,0,0,0,3.3958,3.3959,0,3.4056,3.4057,3.4058,3.406,3.4059,3.4058,3.4057,3.4158,3.4162,3.4166,0,0,0,0,0,0,0,0,0,0,0,0,0,3.3778,3.3781,3.3958,3.396,3.3961,3.4056,3.4057,3.4059,3.406,3.4059,3.4057,3.4056,3.4157,3.4162,3.4166,0,0,0,0,0,0,0,0,0,0,0,0,0,3.3864,3.3782,3.3958,3.3973,3.3975,3.4056,3.4057,3.4059,3.4061,3.4059,3.4057,3.4055,3.4156,3.4161,3.4167,3.4239,0,0,3.4185,3.4187,0,0,0,0,0,0,0,0,3.3859,3.3871,3.397,3.3972,3.3975,3.4044,3.4031,3.4119,3.4061,3.4028,3.4057,3.4055,3.4122,3.413,3.4153,3.4244,3.4248,3.4185,3.4189,3.4191,3.4193,0,0,0,0,0,0,0,3.3853,3.3866,3.3997,3.3971,3.3974,3.3977,3.3987,3.4048,3.4084,3.4031,3.4031,3.4043,3.4123,3.4147,3.4155,3.425,3.4185,3.419,3.4194,3.4196,3.441,3.4412,0,0,0,0,0,0,3.3844,3.3861,3.3994,3.4,3.3911,3.3981,3.3993,3.4024,3.4084,3.4091,3.4044,3.4043,3.4138,3.4148,3.4159,3.425,3.4191,3.4196,3.42,3.4408,3.4411,3.4413,0,0,0,0,0,0,3.384,3.3855,3.399,3.3931,3.3948,3.3986,3.4021,3.4027,3.4051,3.4094,3.41,3.4062,3.4137,3.4151,3.422,3.4253,3.4199,3.4204,3.4405,3.4409,3.4412,3.4431,0,0,0,0,0,0,3.3835,3.3854,3.388,3.3931,3.3951,3.4048,3.4023,3.403,3.406,3.4059,3.4112,3.4119,3.4137,3.4211,3.4226,3.426,3.4209,3.4402,3.4407,3.4411,3.4428,3.4435,3.4441,0,0,0,0,0,3.3828,3.3881,3.3882,3.3898,3.3985,3.405,3.4061,3.408,3.4063,3.4091,3.412,3.4117,3.4248,3.4219,3.4235,3.4272,3.44,3.4406,3.441,3.4425,3.4434,3.4441,0,0,0,0,0,0,3.3833,3.3888,3.3889,3.396,3.4001,3.405,3.4085,3.4088,3.4134,3.4131,3.4153,3.4165,3.4235,3.426,3.4227,3.4347,3.4322,3.4331,3.4328,3.4336,3.4343,3.4335,3.4214,0,0,0,0,0,3.3842,3.3889,3.3936,3.3994,3.4014,3.4047,3.4076,3.4087,3.413,3.4147,3.418,3.4222,3.4274,3.4306,3.4355,3.4432,3.4445,3.4466,3.4472,3.4477,3.4485,3.4531,3.4541,3.443,3.4429,3.4429,0,0,3.3862,3.3898,3.3926,3.3996,3.4028,3.4079,3.4061,3.4113,3.4152,3.4155,3.4223,3.425,3.4299,3.4373,3.4407,3.4396,3.4519,3.4484,3.4488,3.4492,3.4537,3.4548,3.4557,3.4433,3.4432,3.4432,0,0,3.3923,3.3954,3.4008,3.4042,3.4092,3.4114,3.4127,3.4177,3.4195,3.4264,3.4269,3.4315,3.4401,3.4437,3.4467,3.4547,3.4548,3.4563,3.4597,3.4642,3.465,3.4658,3.4689,3.47,3.457,3.457,3.457,0,3.3941,3.4016,3.4035,3.4089,3.4121,3.4128,3.4184,3.4216,3.4279,3.4302,3.4289,3.44,3.4433,3.4518,3.4538,3.4561,3.4579,3.4556,3.4647,3.4656,3.4663,3.4693,3.4705,3.4571,3.4571,3.4571,3.4571,0,3.4037,3.4089,3.4127,3.4189,3.4225,3.428,3.431,3.4345,3.4354,3.4379,3.4451,3.4492,3.4551,3.4572,3.4581,3.4659,3.4651,3.4642,3.4618,3.4675,3.4704,3.4715,3.4573,3.4573,3.4572,3.4572,0,0,3.4101,3.4176,3.419,3.422,3.4278,3.4319,3.4376,3.4434,3.4465,3.451,3.4559,3.4635,3.4628,3.4662,3.4676,3.4715,3.478,3.4702,3.4704,3.4717,3.4872,3.4879,3.4892,3.4781,3.4783,3.4785,3.4869,0,3.417,3.427,3.4292,3.4379,3.4429,3.4438,3.4488,3.453,3.4556,3.4603,3.4632,3.4685,3.4671,3.4693,3.4732,3.4763,3.4812,3.4758,3.483,3.4832,3.4817,3.4906,3.4913,3.4989,3.488,3.4882,3.4883,0,3.4263,3.4311,3.4404,3.4458,3.448,3.4525,3.4582,3.4627,3.4676,3.4692,3.4732,3.4743,3.4805,3.4778,3.4866,3.4829,3.4861,3.4881,3.4885,3.4892,3.4861,3.4918,3.5014,3.5026,3.49,3.4899,3.4898,0,3.4303,3.4391,3.4459,3.4484,3.4549,3.4581,3.4609,3.4657,3.4692,3.4743,3.4766,3.4823,3.4855,3.49,3.4927,3.4905,3.5014,3.4989,3.5031,3.503,3.5053,3.5051,3.5157,3.5072,3.5072,3.5071,3.5071,0,3.4378,3.4435,3.4478,3.452,3.4585,3.4611,3.4675,3.4704,3.4747,3.4796,3.4808,3.4854,3.4887,3.4938,3.496,3.5032,3.5045,3.5062,3.5067,3.5061,3.5059,3.5082,3.5078,3.5075,3.5074,3.5073,3.5073,0,3.4434,3.4465,3.4539,3.4596,3.4612,3.4657,3.4707,3.4749,3.4776,3.4838,3.4854,3.4897,3.4959,3.4991,3.5067,3.5083,3.5163,3.5165,3.5146,3.5149,3.519,3.5186,3.5314,3.5333,3.5235,3.5235,3.5236,0,3.4479,3.4524,3.4586,3.462,3.4649,3.4703,3.474,3.4768,3.4806,3.4868,3.4903,3.4966,3.5017,3.5117,3.5155,3.5216,3.5219,3.526,3.5228,3.5222,3.5222,3.522,3.5226,3.5266,3.5267,3.5268,3.5268,0,3.4559,3.4573,3.4624,3.4683,3.4726,3.4773,3.482,3.4847,3.4884,3.4926,3.499,3.503,3.511,3.5173,3.5237,3.5269,3.5276,3.5278,3.5292,3.5286,3.5274,3.5283,3.5163,3.5275,3.5274,3.5274,3.5273,3.5273,3.4612,3.4653,3.4704,3.4762,3.4801,3.4845,3.4889,3.4922,3.4975,3.5042,3.5057,3.5125,3.5178,3.5264,3.5298,3.5354,3.5345,3.5364,3.5369,3.5373,3.5376,3.5265,3.5365,3.5365,3.5365,3.5365,3.5365,0,3.4693,3.4727,3.4781,3.4847,3.4894,3.4896,3.4949,3.4989,3.5048,3.5097,3.5148,3.5223,3.5286,3.5331,3.5395,3.5431,3.5436,3.5447,3.5445,3.5453,3.5379,3.5362,3.5442,3.5442,3.5442,3.5442,3.5442,3.5442,3.4741,3.4812,3.4833,3.4924,3.4958,3.5025,3.5055,3.5098,3.5137,3.522,3.5272,3.5301,3.535,3.5418,3.5477,3.5489,3.5513,3.5524,3.5536,3.5466,3.5458,3.545,3.5434,3.5528,3.5528,3.5606,3.5606,3.5607]},{"header":{"parameterUnit":"m.s-1","parameterCategory":1,"la1":30.2991,"la2":30.254,"lo1":-89.0895,"lo2":-89.0444,"dy":0.0017,"dx":0.0017,"nx":28,"ny":28,"refTime":"2024-02-23T09:00:00:Z","depth":0,"parameterNumber":3,"parameterNumberName":"V-component_of_WINDS"},"data":[0,0,0,0,0,0,0,0,0,0,0,0,0,0,0,0,0,0,0,0,0,0,0,0,0,0,0,0,0,0,0,0,0,0,0,0,0,0,0,0,0,0,0,0,0,0,0,0,0,0,0,0,0,0,0,0,0,0,-5.9134,-5.9134,0,-5.9132,-5.9132,-5.9132,-5.9137,-5.9137,-5.9137,-5.9137,-5.9128,-5.9128,-5.9128,0,0,0,0,0,0,0,0,0,0,0,0,0,-5.9138,-5.9138,-5.9134,-5.9134,-5.9134,-5.9132,-5.9132,-5.9132,-5.9137,-5.9137,-5.9137,-5.9137,-5.9128,-5.9128,-5.9128,0,0,0,0,0,0,0,0,0,0,0,0,0,-5.9136,-5.9138,-5.9134,-5.9137,-5.9137,-5.9132,-5.9132,-5.9132,-5.9137,-5.9137,-5.9137,-5.9138,-5.9129,-5.9128,-5.9127,-5.9119,0,0,-5.9126,-5.9125,0,0,0,0,0,0,0,0,-5.9136,-5.9136,-5.9136,-5.9137,-5.9137,-5.9135,-5.913,-5.9128,-5.9137,-5.9137,-5.9137,-5.9138,-5.913,-5.9129,-5.9128,-5.9118,-5.9118,-5.9126,-5.9125,-5.9125,-5.9125,0,0,0,0,0,0,0,-5.9137,-5.9136,-5.9133,-5.9136,-5.9137,-5.9136,-5.9136,-5.913,-5.9132,-5.9137,-5.9137,-5.9137,-5.913,-5.9129,-5.9128,-5.9118,-5.9126,-5.9125,-5.9125,-5.9124,-5.9104,-5.9103,0,0,0,0,0,0,-5.9137,-5.9136,-5.9134,-5.9133,-5.9137,-5.9136,-5.9136,-5.9135,-5.9132,-5.9132,-5.9137,-5.9137,-5.913,-5.9129,-5.9128,-5.9119,-5.9125,-5.9124,-5.9124,-5.9104,-5.9104,-5.9103,0,0,0,0,0,0,-5.9137,-5.9137,-5.9134,-5.9135,-5.9135,-5.9136,-5.9135,-5.9135,-5.9134,-5.9132,-5.9132,-5.9135,-5.913,-5.9128,-5.9122,-5.9119,-5.9124,-5.9124,-5.9104,-5.9104,-5.9103,-5.91,0,0,0,0,0,0,-5.9137,-5.9137,-5.9134,-5.9135,-5.9135,-5.9129,-5.9135,-5.9135,-5.9134,-5.9134,-5.9131,-5.913,-5.913,-5.9123,-5.9122,-5.9118,-5.9123,-5.9104,-5.9104,-5.9104,-5.9101,-5.91,-5.9099,0,0,0,0,0,-5.9137,-5.9131,-5.9134,-5.9134,-5.9132,-5.9129,-5.9128,-5.913,-5.9133,-5.913,-5.913,-5.913,-5.912,-5.9122,-5.9121,-5.9117,-5.9104,-5.9104,-5.9104,-5.9101,-5.91,-5.9099,0,0,0,0,0,0,-5.9126,-5.9131,-5.9134,-5.9129,-5.9129,-5.913,-5.9126,-5.9129,-5.9126,-5.9126,-5.9127,-5.9126,-5.9119,-5.9117,-5.912,-5.911,-5.9112,-5.9112,-5.9111,-5.911,-5.9109,-5.9109,-5.9123,0,0,0,0,0,-5.9124,-5.9123,-5.9127,-5.9121,-5.9122,-5.9124,-5.9123,-5.9125,-5.9124,-5.9123,-5.9122,-5.9119,-5.9116,-5.9113,-5.9109,-5.9101,-5.9101,-5.9098,-5.9097,-5.9097,-5.9095,-5.9093,-5.9092,-5.9102,-5.9102,-5.9102,0,0,-5.9117,-5.912,-5.9119,-5.9119,-5.9119,-5.9118,-5.9124,-5.912,-5.9119,-5.9122,-5.9117,-5.9116,-5.9113,-5.9107,-5.9104,-5.9105,-5.9093,-5.9096,-5.9096,-5.9095,-5.9092,-5.9092,-5.9091,-5.9102,-5.9102,-5.9102,0,0,-5.9105,-5.9107,-5.9104,-5.9105,-5.9107,-5.911,-5.9109,-5.9111,-5.9111,-5.9107,-5.911,-5.9107,-5.91,-5.9099,-5.9098,-5.909,-5.909,-5.9088,-5.9084,-5.9082,-5.9081,-5.908,-5.9078,-5.9077,-5.9088,-5.9088,-5.9088,0,-5.9096,-5.9095,-5.9101,-5.9099,-5.91,-5.9106,-5.9103,-5.9103,-5.9102,-5.9102,-5.9104,-5.9099,-5.9097,-5.9091,-5.909,-5.9088,-5.9087,-5.9088,-5.9081,-5.908,-5.908,-5.9078,-5.9077,-5.9087,-5.9087,-5.9087,-5.9087,0,-5.9084,-5.9084,-5.9081,-5.9085,-5.9085,-5.9082,-5.9087,-5.9086,-5.9089,-5.9091,-5.9087,-5.9087,-5.9084,-5.9083,-5.9084,-5.9078,-5.9079,-5.9081,-5.9084,-5.9079,-5.9077,-5.9076,-5.9087,-5.9087,-5.9087,-5.9087,0,0,-5.9061,-5.9072,-5.907,-5.9073,-5.9078,-5.9077,-5.9075,-5.9076,-5.9076,-5.9076,-5.9074,-5.9071,-5.9074,-5.9072,-5.9074,-5.9072,-5.9067,-5.9074,-5.9074,-5.9073,-5.9062,-5.906,-5.9059,-5.9069,-5.9069,-5.9069,-5.9063,0,-5.905,-5.9049,-5.9057,-5.9053,-5.9054,-5.9062,-5.906,-5.9063,-5.9065,-5.9065,-5.9067,-5.9065,-5.9069,-5.9069,-5.9067,-5.9068,-5.9065,-5.9069,-5.9066,-5.9066,-5.9066,-5.9058,-5.9056,-5.905,-5.9062,-5.9062,-5.9061,0,-5.9035,-5.9039,-5.9037,-5.9045,-5.9046,-5.9044,-5.9047,-5.9047,-5.905,-5.9052,-5.9053,-5.9057,-5.9055,-5.9059,-5.9057,-5.9059,-5.9059,-5.906,-5.906,-5.9059,-5.9063,-5.9057,-5.9048,-5.9047,-5.906,-5.906,-5.906,0,-5.902,-5.9024,-5.9024,-5.9026,-5.9035,-5.9035,-5.9038,-5.9042,-5.9043,-5.9045,-5.9046,-5.9046,-5.9046,-5.9047,-5.905,-5.9053,-5.9048,-5.9052,-5.9049,-5.9049,-5.9046,-5.9046,-5.9037,-5.9047,-5.9047,-5.9047,-5.9047,0,-5.9006,-5.9004,-5.9018,-5.9018,-5.9017,-5.9025,-5.9024,-5.9028,-5.9032,-5.9032,-5.9038,-5.9038,-5.9043,-5.9044,-5.9046,-5.9045,-5.9044,-5.9046,-5.9046,-5.9045,-5.9045,-5.9044,-5.9044,-5.9047,-5.9047,-5.9047,-5.9047,0,-5.8987,-5.8996,-5.8997,-5.9008,-5.901,-5.9009,-5.9017,-5.9017,-5.9022,-5.9023,-5.9023,-5.903,-5.9031,-5.9036,-5.9036,-5.9038,-5.9036,-5.9037,-5.9035,-5.9036,-5.9033,-5.9033,-5.9022,-5.9022,-5.9032,-5.9032,-5.9032,0,-5.8977,-5.8977,-5.8989,-5.8991,-5.8995,-5.8998,-5.9,-5.9009,-5.9011,-5.9018,-5.9017,-5.9019,-5.9022,-5.9023,-5.9027,-5.9028,-5.903,-5.9026,-5.903,-5.9029,-5.903,-5.903,-5.903,-5.9025,-5.9024,-5.9024,-5.9024,0,-5.8959,-5.8965,-5.8969,-5.8976,-5.898,-5.8985,-5.899,-5.8991,-5.9001,-5.9003,-5.9006,-5.9008,-5.9012,-5.9014,-5.9018,-5.902,-5.9023,-5.9024,-5.9023,-5.9021,-5.9021,-5.9022,-5.9033,-5.9023,-5.9023,-5.9023,-5.9023,-5.9023,-5.8944,-5.8945,-5.8955,-5.896,-5.8967,-5.8972,-5.8974,-5.8981,-5.8985,-5.899,-5.8995,-5.8998,-5.9004,-5.9009,-5.9011,-5.9013,-5.9015,-5.9014,-5.9013,-5.9013,-5.9013,-5.9022,-5.9013,-5.9013,-5.9013,-5.9013,-5.9013,0,-5.8926,-5.8934,-5.894,-5.8949,-5.8954,-5.8961,-5.8968,-5.8971,-5.8974,-5.898,-5.8984,-5.8989,-5.8992,-5.8998,-5.9002,-5.9003,-5.9005,-5.9003,-5.9003,-5.9003,-5.901,-5.9011,-5.9002,-5.9002,-5.9002,-5.9002,-5.9002,-5.9002,-5.8918,-5.8921,-5.8929,-5.8935,-5.8942,-5.8948,-5.8951,-5.8957,-5.8962,-5.8968,-5.8973,-5.8978,-5.8984,-5.8989,-5.8993,-5.8994,-5.8995,-5.8993,-5.8996,-5.9002,-5.9003,-5.9004,-5.9004,-5.8994,-5.8994,-5.8989,-5.8988,-5.8988]}]]